This demonstration page uses our WeatherBlox Daily Observations layout. Learn more.

Left ArrowRight Arrow

39.92423, -83.80882

Hourly Observations for March 8, 2020

Temp ( °F °C ) Dew Point ( °F °C ) Humidity (%) Winds ( mph kmh ) Pressure ( in mb ) Visibility ( mi km ) Precip ( " mm )
12:56 am 00:56 Clear 37 2.8 24 -4.4 59 59 S 7 11 30.48 1032 10 16.0934 0 0
1:56 am 01:56 Clear 35 1.7 25 -3.9 67 67 S 6 9 30.47 1032 10 16.0934 0 0
3:56 am 03:56 Clear 35 1.7 25 -3.9 67 67 SSW 6 9 30.45 1031 10 16.0934 0 0
4:56 am 04:56 Clear 34 1.1 24 -4.4 67 67 S 6 9 30.45 1031 10 16.0934 0 0
5:56 am 05:56 Clear 34 1.1 24 -4.4 67 67 S 6 9 30.46 1031 10 16.0934 0 0
6:56 am 06:56 Clear 34 1.1 23 -5 64 64 S 6 9 30.47 1032 10 16.0934 0 0
7:56 am 07:56 Clear 34 1.1 23 -5 64 64 S 7 11 30.47 1032 10 16.0934 0 0
8:56 am 08:56 Sunny 35 1.7 25 -3.9 67 67 SSW 5 7 30.49 1032 10 16.0934 0 0
9:56 am 09:56 Sunny 41 5 25 -3.9 53 53 SSW 13 20 30.48 1032 10 16.0934 0 0
10:56 am 10:56 Sunny 46 7.8 28 -2.2 50 50 SSW 12 19 30.47 1032 10 16.0934 0 0
11:56 am 11:56 Sunny 50 10 30 -1.1 46 46 SSW 14 22 30.46 1031 10 16.0934 0 0
12:56 pm 12:56 Sunny 53 11.7 29 -1.7 40 40 SW 15 24 30.43 1030 10 16.0934 0 0
1:56 pm 13:56 Sunny 57 13.9 30 -1.1 36 36 SW 10 17 30.4 1030 10 16.0934 0 0
2:56 pm 14:56 Sunny 59 15 29 -1.7 32 32 SW 16 26 30.37 1029 10 16.0934 0 0
3:56 pm 15:56 Sunny 60 15.6 29 -1.7 31 31 SSW 15 24 30.35 1028 10 16.0934 0 0
4:56 pm 16:56 Sunny 61 16.1 30 -1.1 31 31 SSW 14 22 30.33 1027 10 16.0934 0 0
5:56 pm 17:56 Sunny 61 16.1 29 -1.7 30 30 SSW 12 19 30.32 1027 10 16.0934 0 0
6:56 pm 18:56 Sunny 60 15.6 30 -1.1 32 32 S 9 15 30.31 1026 10 16.0934 0 0
7:56 pm 19:56 Clear 56 13.3 30 -1.1 37 37 S 6 9 30.31 1026 10 16.0934 0 0
8:56 pm 20:56 Clear 54 12.2 31 -0.6 42 42 S 6 9 30.32 1027 10 16.0934 0 0
9:56 pm 21:56 Clear 53 11.7 31 -0.6 43 43 S 8 13 30.32 1027 10 16.0934 0 0
10:56 pm 22:56 Clear 51 10.6 30 -1.1 44 44 S 9 15 30.31 1026 10 16.0934 0 0
11:56 pm 23:56 Clear 50 10 29 -1.7 44 44 SSW 6 9 30.31 1026 10 16.0934 0 0

Powered by AerisWeather